Temp_Advection
nan nan nan nan nan nan nan nan nan nan nan nan nan nan nan nan nan nan nan nan nan nan nan nan nan nan nan nan nan nan nan nan nan nan nan nan nan nan nan nan nan nan nan nan nan nan nan nan nan
nan 0 -0 -1 -0 0 -0 -0 -0 -0 0 0 0 0 -0 -1 -1 -0 -0 -0 -0 -0 -0 0 0 -0 0 -0 0 0 0 0 -0 0 0 0 0 -0 -0 -0 -0 0 -0 -0 0 0 0 0 nan
nan -0 -1 -0 0 -0 -0 -0 -1 -1 0 -0 -0 -0 -0 -1 -0 -0 -0 -0 -0 -0 -0 -0 0 0 -0 0 0 0 0 0 0 -0 0 1 0 0 0 -0 -0 -0 0 -0 -0 -0 -0 -0 nan
nan -0 -1 0 -0 0 -0 -0 -0 -0 -0 0 -0 -1 -1 -0 0 -0 -0 -0 -0 -0 -0 0 0 0 0 0 0 0 0 0 0 -0 -0 0 0 0 0 0 -0 -0 -0 -0 -0 -0 0 -0 nan
nan -1 0 -0 -0 0 -0 -0 -0 -0 -0 0 -0 -1 -1 -0 0 0 -0 -0 -0 -0 -0 0 0 0 1 0 0 0 0 -0 0 0 -0 -0 -0 0 0 0 0 -0 -0 0 -0 -0 -0 -0 nan
nan -0 0 -0 -0 0 -0 -0 -0 -0 -0 -0 -0 -1 -1 -0 0 0 0 -0 -0 -0 -0 -0 0 0 0 1 0 0 0 0 -0 0 0 0 0 0 0 0 0 0 -0 -0 -0 -0 -0 0 nan
nan 0 -0 -0 -0 0 -0 -0 0 -0 -0 -0 0 -1 -1 -0 -0 0 0 0 -0 0 -0 0 -0 -0 0 0 0 0 0 0 0 -0 0 0 0 0 -0 0 0 -0 -0 -0 -0 -0 0 0 nan
nan -0 -0 0 -0 -0 -0 -0 0 0 -0 -0 0 0 -1 -1 -0 -0 -0 0 -0 -0 -0 0 -0 -0 -0 0 0 0 0 -0 -0 0 0 0 0 0 0 0 -0 -0 -0 0 -0 -0 -0 0 nan
nan 0 -0 0 -0 -0 -0 -0 -0 -0 -0 -0 0 -1 -1 -0 -0 -0 -0 -0 -0 -0 -0 -0 0 -0 -0 -0 0 0 0 0 0 0 0 -0 -0 0 0 0 0 -0 -0 -0 0 0 0 0 nan
nan 0 -0 0 -0 -0 -0 -0 -0 -0 -0 -1 -1 -1 -0 -0 -0 -0 -0 -0 -0 -0 -0 0 0 -0 0 0 0 -0 -0 0 0 0 0 0 0 0 -0 -0 0 0 0 -0 0 0 0 0 nan
nan 0 -0 -0 0 -0 -0 -0 -0 0 -0 -1 -1 -1 -1 -0 -0 -0 -0 0 0 -0 -0 -0 0 0 -0 0 0 0 -0 -0 -0 0 -0 0 0 0 0 -0 0 0 -0 0 0 -0 -0 0 nan
nan 0 -0 -0 0 0 -0 -0 -0 -0 -0 -0 -0 -0 -0 -0 -0 -0 -0 -0 0 0 -0 -0 0 1 0 0 1 0 0 -0 -0 -0 0 0 0 0 0 0 -0 -0 -0 0 -0 0 0 0 nan
nan -0 -0 -0 -0 -0 -0 -0 -0 -0 -0 -0 -0 -0 -0 -0 -0 -0 -0 -0 0 0 -0 -0 0 0 0 0 0 0 1 0 0 -0 0 0 0 0 0 0 -0 -0 -0 -0 -0 -0 -0 -0 nan
nan 0 -0 -0 -0 -0 -0 -0 -0 -0 -0 -0 -0 -0 -0 -0 -0 -0 -0 -0 0 0 0 0 -0 0 0 0 -0 0 0 0 0 -0 -0 -0 0 -0 0 0 0 -0 -0 -0 0 -0 0 -0 nan
nan -0 0 -0 -0 0 0 -0 -0 -1 -0 -0 -0 -0 -0 0 0 -0 -0 -0 -0 0 0 0 -0 0 -0 0 0 0 -0 0 -0 0 -0 -0 -0 -0 -0 0 0 -0 -0 -0 0 -0 -0 -0 nan
nan 0 0 0 -0 0 -0 -0 -0 -0 -0 -0 -0 -0 0 0 0 0 0 -0 -0 -0 0 -0 0 0 -0 0 0 -0 0 0 0 0 0 0 -0 0 -0 0 -0 -0 -0 -0 -0 -0 -0 -0 nan
nan 0 0 0 -0 -0 -0 0 -0 -0 -0 -0 -0 -0 -0 -0 0 0 0 -0 -0 -0 -0 0 0 0 0 -0 0 0 0 0 -0 0 -0 0 0 0 0 0 -0 -0 -0 -0 -0 -0 -0 -0 nan
nan 0 -0 -1 0 0 0 -0 0 -0 -0 -0 -0 -0 -0 -0 0 0 -0 -0 -0 -0 -0 0 0 0 0 -0 0 0 -0 -0 -0 0 0 0 0 -0 -0 -0 -0 0 0 -0 -0 -0 -0 -0 nan
nan -0 -0 1 -0 0 0 -0 -0 -0 -0 -0 -0 0 0 0 0 -0 0 -0 -0 -0 0 -0 0 -0 -0 -0 -0 0 -0 -0 0 0 0 -0 -0 -0 0 0 -0 -0 -0 -0 0 0 -0 -0 nan
nan 0 -0 0 0 -0 -0 -1 -1 -0 -0 0 0 0 1 0 -0 -0 -0 -0 -0 -0 0 -0 -0 -0 -0 0 0 0 0 0 0 0 -1 -0 -0 -0 -0 0 0 0 0 -0 -0 0 -0 -0 nan
nan 0 -0 1 -0 -0 0 -0 -2 -1 0 -0 0 0 -0 0 -0 -0 -0 -0 -0 -0 -0 -0 -0 0 0 0 -0 -0 -0 -0 -0 -1 -0 -0 -0 -0 -0 -0 -0 0 0 0 0 -0 -0 -0 nan
nan -0 0 0 -0 -0 -0 -0 -1 -0 -0 -0 0 -0 -1 -0 -0 -0 -0 -0 -0 -0 -1 -1 -1 0 -0 -0 -0 -0 -0 -0 -0 -0 0 -0 -0 -0 -0 -0 -0 0 0 -0 0 -0 -0 -0 nan
nan 0 0 0 -0 -0 -0 -0 -0 -0 -0 -0 -0 -0 -0 -1 -0 -0 -0 -0 -0 -0 -0 -0 -1 -1 -0 -0 0 0 0 0 0 -0 -0 -0 -0 -0 -0 -0 0 0 0 -0 -0 0 -0 0 nan
nan -0 0 -0 0 -0 0 -0 -0 -0 -0 -1 -0 0 -0 -0 -0 -0 -0 0 -0 -0 -0 0 0 -0 -0 -0 0 -0 0 -0 -0 -0 -0 -0 -0 -0 -0 0 -0 -0 0 0 -0 -0 0 0 nan
nan -0 0 0 0 -0 -0 -0 -1 -0 0 0 0 -0 -0 -0 0 -0 -0 -0 -0 -0 -0 -0 0 -0 -1 -0 -0 -0 -0 -0 -0 -0 -0 -0 -0 -0 -0 -0 -0 0 0 -0 0 0 0 -0 nan
nan -0 1 0 -0 0 -0 -0 0 -0 -0 0 0 -1 -0 -0 0 -1 -0 -0 -0 -0 -0 -0 -0 -0 -0 -0 -1 -1 -0 -0 -0 -0 -0 -0 -0 -0 -0 0 0 -0 0 0 0 0 -0 -0 nan
nan -0 -0 -0 -0 0 0 -0 0 0 -0 -0 -0 -0 -0 0 -1 -0 -0 -0 -0 -0 -0 -0 -0 -0 0 -0 -0 -0 -0 -0 -0 -0 -0 0 0 0 0 -0 -0 0 0 0 0 -0 -0 0 nan
nan 0 0 0 0 -0 -0 0 -0 -0 0 -0 -0 0 -0 0 -0 0 -0 -0 -0 -0 -0 -0 -0 -1 -0 -0 -0 -0 -0 -0 -0 -0 -0 -0 -0 -0 0 -0 0 0 0 0 0 -0 -0 0 nan
nan -0 -0 -0 0 0 -0 0 0 0 -0 -0 -0 -0 -0 -0 -0 -0 -0 -0 -0 -0 -0 -0 -0 -0 -1 -0 -0 -0 -0 0 0 -0 -0 0 -0 -0 0 0 0 0 0 0 0 -0 -0 -0 nan
nan nan nan nan nan nan nan nan nan nan nan nan nan nan nan nan nan nan nan nan nan nan nan nan nan nan nan nan nan nan nan nan nan nan nan nan nan nan nan nan nan nan nan nan nan nan nan nan nan
Wind_Speed
10 7 4 2 3 6 8 2 2 3 1 2 3 7 12 9 7 7 8 7 11 11 11 14 21 24 26 25 25 25 25 25 26 24 22 21 20 20 19 18 17 14 9 5 4 4 2 1 1
10 7 1 4 2 11 9 6 6 4 6 11 10 10 12 15 14 13 9 11 11 11 9 17 19 25 25 26 24 25 24 25 26 22 20 19 18 18 17 15 13 9 4 6 6 5 5 4 3
9 4 4 5 10 13 11 10 11 12 7 2 5 7 6 9 7 7 10 13 12 12 11 17 19 24 24 25 23 24 23 24 24 21 19 18 17 16 14 12 10 5 7 7 5 3 1 2 3
3 1 6 4 16 14 13 10 8 9 7 7 9 10 10 7 5 9 11 13 13 13 13 17 18 23 25 23 23 23 23 22 21 20 18 17 15 13 11 8 6 8 7 4 3 3 5 6 7
2 5 5 13 14 12 11 13 7 5 4 7 7 9 11 9 11 12 12 12 13 12 13 15 17 19 22 22 23 23 23 20 18 17 16 15 12 10 7 7 8 7 6 5 6 8 10 9 8
4 5 8 11 13 10 9 6 7 9 11 12 14 12 7 8 10 11 12 12 12 13 13 15 15 17 24 22 23 23 21 19 16 14 14 12 10 9 9 8 9 9 8 8 10 12 10 8 6
4 3 9 12 11 9 8 6 8 11 11 9 5 9 9 9 9 11 12 12 12 13 13 15 16 16 18 20 20 19 18 17 15 13 11 10 9 10 9 9 10 10 10 10 10 9 8 7 6
1 1 5 7 8 9 9 9 11 7 11 8 1 6 11 12 11 12 13 13 12 13 14 15 18 18 19 17 15 15 15 13 13 13 10 10 8 8 10 10 11 11 10 9 8 7 7 7 6
1 2 6 7 6 8 11 11 7 4 8 7 9 13 14 14 13 13 13 13 12 12 13 14 19 19 19 21 15 14 14 13 12 10 10 9 9 8 12 11 10 9 8 8 6 6 6 5 10
5 2 4 2 8 9 12 10 9 9 11 14 16 14 14 14 12 12 12 12 12 12 13 14 19 22 22 22 18 14 13 9 9 10 9 12 10 9 9 9 8 7 6 5 3 4 5 9 6
3 5 3 6 4 7 11 8 7 10 9 13 15 15 13 13 12 11 10 10 11 12 12 14 18 19 17 26 21 16 12 11 9 8 10 10 8 7 6 4 2 2 1 1 3 5 5 8 7
4 2 1 5 5 7 9 8 8 5 9 12 15 13 12 12 11 10 10 10 11 11 11 14 17 20 23 23 22 20 15 13 10 9 8 9 7 6 6 5 4 1 2 4 5 5 8 8 10
4 1 7 8 10 8 9 6 9 8 10 14 14 13 12 10 9 8 8 9 10 11 11 13 18 21 22 21 20 24 24 15 10 8 8 7 7 6 5 3 2 1 2 3 4 6 7 9 10
1 6 12 11 10 9 5 8 9 11 12 14 14 12 10 9 8 7 7 7 9 12 9 13 16 18 17 19 18 18 21 21 13 10 9 9 7 6 4 3 2 1 1 2 5 7 8 10 13
10 10 8 9 9 7 4 7 4 15 15 14 14 11 10 9 8 6 5 5 8 9 11 11 15 17 17 14 17 17 17 22 19 13 11 10 8 7 7 2 2 1 4 6 7 9 10 12 13
5 8 7 9 11 5 9 9 9 14 16 16 15 14 12 10 9 7 6 6 7 9 9 13 16 18 18 18 18 16 16 17 19 17 13 10 10 8 6 1 1 2 5 6 8 9 12 13 12
9 2 5 9 12 7 11 2 10 15 16 15 15 14 13 12 11 10 8 7 7 7 11 13 15 19 19 19 19 16 13 15 22 19 14 11 10 7 5 2 3 5 6 7 10 12 14 14 13
4 3 4 9 11 12 11 11 5 15 16 15 14 13 13 13 13 12 10 9 8 7 8 13 15 17 17 17 21 16 16 17 19 18 18 12 9 7 5 3 6 7 8 9 11 17 14 13 13
8 7 6 9 8 6 9 13 8 10 16 16 14 14 14 13 15 14 12 11 9 8 6 12 13 18 17 16 21 21 15 18 16 14 16 16 11 8 5 3 6 8 10 15 17 15 13 13 11
9 7 4 1 4 10 9 15 18 17 18 17 18 13 14 14 16 18 16 14 11 10 8 13 15 15 16 18 16 15 18 14 15 11 18 16 15 13 8 9 10 12 14 15 17 15 11 10 9
7 4 0 10 9 13 9 17 22 20 18 21 19 19 21 20 19 21 20 17 14 12 11 13 15 16 16 17 15 16 14 13 13 12 15 19 18 15 15 14 14 16 19 14 15 11 12 11 10
8 1 5 5 7 7 15 11 10 16 19 19 22 22 26 18 18 20 21 19 17 15 13 14 15 14 14 17 14 14 14 14 13 10 9 10 17 17 17 16 16 20 17 14 12 11 11 11 11
4 2 5 7 10 8 12 8 3 7 15 20 22 23 23 22 20 21 20 19 18 17 16 15 15 14 14 13 12 12 12 11 12 11 9 8 12 14 13 14 18 17 13 12 12 12 11 9 10
7 5 6 5 8 8 0 6 8 9 13 16 21 24 23 24 22 19 19 20 20 18 17 16 16 14 13 11 10 10 9 9 10 9 6 6 7 8 12 17 15 12 13 10 5 11 11 11 9
9 10 6 4 4 3 4 6 9 2 5 10 20 25 25 24 25 23 23 22 22 21 19 17 16 15 13 12 11 9 9 12 12 8 7 5 8 11 11 9 8 10 11 12 17 13 8 9 8
11 10 7 8 5 9 8 4 5 5 3 9 19 26 25 26 25 25 25 23 23 22 21 18 16 14 13 15 15 14 12 10 9 7 2 3 3 4 5 6 8 10 9 8 8 7 7 8 8
8 8 4 11 13 8 1 4 8 3 9 11 16 20 22 24 25 26 25 23 22 22 22 20 18 17 15 14 15 13 13 12 8 8 7 6 3 5 6 8 7 9 8 7 5 6 7 5 4
11 3 6 5 4 5 2 4 6 5 7 13 17 18 20 22 24 25 26 24 22 22 22 21 20 20 17 19 19 13 12 9 10 11 4 2 4 7 7 7 8 7 5 5 1 2 4 4 3
7 10 10 9 7 7 7 5 7 3 6 14 18 20 22 25 26 26 25 24 22 22 23 22 21 23 23 23 20 17 11 9 7 7 6 3 3 5 7 5 4 4 5 4 2 2 2 2 2
21 15 14 9 8 5 5 6 8 3 9 15 21 19 21 24 27 26 26 26 23 23 24 23 23 21 23 24 22 19 16 14 13 10 7 7 7 6 5 5 5 5 4 2 2 2 3 6 6
Wind_Direction
148 144 168 255 212 112 79 48 6 43 171 66 46 46 69 42 6 72 119 114 122 113 117 137 146 146 144 144 141 140 141 141 141 138 138 135 136 137 136 138 139 142 145 157 165 137 138 170 261
161 160 204 240 237 82 83 112 170 165 128 114 84 92 79 75 83 103 106 122 121 116 130 135 147 148 146 146 140 144 141 142 143 142 139 138 136 137 140 140 139 137 140 143 142 130 113 98 88
160 173 253 281 56 77 89 97 107 137 130 121 105 72 60 88 92 92 115 128 125 120 147 139 152 153 151 151 144 145 143 144 144 143 141 140 138 139 138 136 143 146 141 141 138 135 77 61 76
157 255 252 85 87 70 91 111 106 124 111 103 115 86 93 64 112 129 123 129 129 123 128 142 146 156 157 153 150 147 147 144 144 145 140 137 136 134 128 132 142 138 130 137 143 114 98 78 87
187 241 115 92 82 90 84 102 107 109 97 128 109 101 89 77 109 122 124 131 132 125 130 144 155 158 159 157 150 147 146 143 145 147 142 142 139 134 131 127 127 122 111 112 106 100 94 84 80
216 263 101 88 99 101 94 95 95 102 113 110 109 100 86 112 124 127 130 133 136 131 134 144 155 157 156 145 143 143 142 143 144 145 144 142 140 138 130 125 126 120 110 103 101 104 100 93 81
334 357 76 96 111 113 112 112 108 114 122 105 124 100 117 131 134 133 134 137 138 134 135 150 149 147 118 133 137 142 142 144 144 143 145 140 143 139 140 139 131 118 106 103 107 109 105 95 78
16 266 125 129 118 119 130 115 122 108 90 112 88 128 139 145 138 136 137 134 138 138 138 157 163 153 127 124 136 142 143 142 143 146 147 151 149 149 144 137 135 124 118 113 109 107 98 73 50
211 160 89 100 91 132 149 134 134 114 122 93 86 88 118 131 139 138 141 138 141 144 143 158 163 162 155 151 148 142 139 145 150 153 155 153 118 136 122 164 145 134 126 112 91 75 52 37 7
262 64 78 29 74 137 159 139 129 139 122 117 106 107 118 126 139 138 148 150 152 154 156 171 165 168 165 169 163 154 149 147 156 165 161 141 146 153 166 152 145 136 129 108 84 40 16 8 338
152 66 100 121 126 141 146 139 137 133 141 146 133 133 131 129 135 142 154 156 157 161 157 167 165 175 189 171 171 167 156 151 155 158 158 144 151 148 139 167 148 180 247 15 315 327 338 314 319
203 126 60 115 160 150 130 127 153 79 89 141 136 134 133 130 130 137 150 157 163 166 168 165 174 173 173 179 183 186 180 156 149 156 138 153 145 160 166 167 195 193 266 280 305 305 304 321 317
221 119 128 133 139 141 127 128 121 117 129 142 145 148 145 137 132 131 147 162 166 169 173 177 175 183 184 194 194 192 195 172 159 158 147 163 161 166 152 178 177 195 286 298 318 316 317 328 326
187 160 130 143 146 142 151 128 161 135 146 154 163 166 161 153 146 142 148 163 171 176 179 184 184 183 176 168 168 185 190 190 178 174 160 168 164 157 157 159 154 310 333 320 320 314 320 325 324
146 142 136 149 153 150 173 163 158 154 166 169 178 180 176 174 170 160 154 161 174 176 180 182 181 182 174 183 181 177 184 195 199 194 175 173 156 167 146 162 129 306 334 339 328 328 320 321 322
192 176 167 157 168 162 221 126 140 170 180 180 185 187 190 191 188 184 173 158 168 169 175 188 192 189 183 182 185 183 199 205 195 195 186 175 171 178 162 153 297 305 336 327 321 321 320 319 323
199 247 248 172 192 157 221 71 159 181 192 191 190 190 195 196 196 194 189 172 167 172 178 185 184 192 192 188 184 187 194 201 190 189 185 179 177 193 186 265 299 295 319 317 317 323 320 320 320
126 224 215 253 196 216 216 246 183 193 200 208 202 196 199 200 201 196 191 182 165 166 171 176 185 185 187 191 203 175 184 179 176 192 195 191 192 202 215 291 281 304 309 312 305 313 314 316 313
182 266 314 215 75 259 256 280 305 238 220 214 216 201 200 205 204 195 192 187 172 167 172 176 175 182 187 194 183 182 188 196 195 199 205 205 208 216 216 286 304 307 311 310 311 312 310 323 319
233 249 123 259 141 232 196 247 259 240 241 230 202 187 198 196 195 192 190 189 176 174 163 171 174 176 183 183 181 187 198 204 212 213 212 212 221 228 242 281 295 305 312 308 306 308 308 314 307
221 271 47 259 193 228 243 246 256 241 228 239 226 197 196 194 193 191 189 188 178 176 167 173 174 180 176 184 185 191 187 199 211 215 224 224 227 236 250 279 291 299 308 303 298 304 302 298 312
256 60 260 194 211 245 197 274 234 220 214 212 217 202 198 194 192 190 189 187 182 178 167 169 170 180 182 190 193 197 201 207 210 211 232 225 234 242 253 273 287 295 301 292 292 303 297 311 309
34 177 230 217 238 285 211 253 268 196 212 206 210 204 200 193 193 187 189 187 184 181 180 176 170 174 176 180 185 200 197 216 218 216 223 240 247 248 262 271 287 297 293 290 295 295 293 305 300
134 166 189 214 262 242 17 273 292 179 224 205 202 200 198 191 190 181 182 183 183 184 184 185 189 181 177 173 180 180 189 191 189 171 177 180 213 236 264 280 292 289 289 295 302 316 287 295 304
206 218 253 210 206 245 165 272 273 255 187 208 183 187 186 181 183 179 177 181 181 186 186 188 188 188 188 186 183 177 164 147 155 166 185 213 242 251 263 271 274 287 285 278 281 299 309 299 301
217 296 296 310 288 324 148 257 67 73 187 174 174 184 183 181 183 183 182 181 182 184 188 188 188 193 185 169 163 156 144 149 165 191 183 170 184 245 241 231 292 297 299 296 292 294 304 304 297
151 230 307 284 243 256 136 255 225 189 197 178 182 185 181 186 187 188 183 182 182 182 187 186 187 184 177 176 165 157 146 160 160 171 162 126 115 121 305 302 299 299 296 287 283 292 296 301 319
260 51 222 213 283 296 247 239 23 4 169 175 182 187 180 181 181 181 181 184 183 184 186 183 187 185 179 168 152 143 130 136 149 146 153 288 293 283 283 281 286 282 276 274 270 13 292 314 14
178 221 234 287 282 308 291 64 40 328 198 173 174 173 167 172 175 176 179 182 181 180 184 183 188 188 184 181 173 167 187 211 227 225 248 253 297 282 268 255 254 256 250 227 233 293 316 44 53
249 232 230 241 183 237 313 296 44 10 174 172 170 169 170 171 171 173 175 177 177 179 181 183 187 194 184 190 195 207 210 214 218 222 231 263 265 229 222 222 227 214 200 192 182 137 107 100 88
Height
1521 1523 1523 1523 1519 1516 1532 1538 1532 1532 1526 1527 1527 1525 1528 1530 1529 1540 1545 1546 1547 1547 1547 1547 1549 1550 1552 1555 1557 1559 1561 1564 1566 1569 1572 1574 1576 1578 1580 1582 1584 1585 1586 1587 1587 1587 1587 1587 1587
1525 1524 1525 1521 1522 1521 1532 1529 1529 1533 1527 1527 1528 1529 1530 1536 1538 1542 1545 1547 1549 1549 1549 1549 1552 1553 1556 1558 1560 1562 1564 1566 1569 1572 1575 1577 1579 1581 1582 1584 1585 1587 1587 1587 1588 1588 1588 1588 1587
1524 1524 1523 1506 1509 1521 1526 1520 1524 1530 1529 1528 1530 1532 1532 1540 1543 1544 1546 1548 1550 1552 1551 1552 1553 1556 1558 1560 1562 1565 1567 1570 1572 1575 1577 1579 1581 1583 1584 1585 1586 1587 1588 1588 1588 1589 1588 1588 1588
1525 1526 1521 1508 1519 1517 1520 1523 1527 1528 1530 1530 1530 1533 1540 1544 1544 1546 1548 1550 1551 1553 1555 1555 1556 1559 1561 1563 1565 1567 1570 1573 1576 1578 1580 1581 1583 1585 1586 1587 1588 1588 1589 1589 1589 1589 1589 1589 1589
1527 1521 1509 1514 1522 1519 1522 1526 1528 1528 1531 1531 1531 1534 1540 1545 1546 1548 1549 1551 1553 1554 1556 1557 1559 1560 1563 1564 1566 1569 1573 1576 1579 1580 1582 1584 1585 1586 1587 1588 1588 1589 1589 1589 1589 1589 1590 1590 1591
1522 1517 1510 1521 1524 1522 1524 1528 1527 1528 1531 1534 1534 1537 1544 1547 1548 1549 1551 1553 1554 1556 1558 1559 1561 1560 1558 1561 1569 1572 1576 1578 1581 1583 1584 1586 1587 1588 1588 1589 1589 1590 1590 1590 1590 1590 1591 1591 1592
1520 1509 1516 1517 1525 1524 1524 1528 1528 1530 1532 1534 1537 1536 1545 1547 1549 1550 1552 1554 1556 1558 1560 1560 1562 1563 1552 1568 1573 1575 1578 1581 1582 1585 1586 1588 1588 1589 1589 1590 1590 1591 1591 1592 1592 1592 1592 1592 1592
1522 1514 1519 1516 1518 1526 1525 1528 1532 1531 1534 1538 1538 1537 1542 1547 1549 1551 1553 1555 1558 1559 1561 1561 1563 1562 1566 1570 1575 1578 1580 1582 1584 1586 1588 1588 1590 1590 1591 1591 1592 1592 1592 1593 1594 1594 1594 1594 1594
1523 1513 1518 1517 1515 1524 1526 1528 1533 1536 1537 1540 1540 1540 1545 1548 1550 1552 1554 1557 1559 1560 1562 1562 1564 1567 1569 1571 1576 1579 1581 1583 1585 1587 1589 1590 1592 1594 1593 1593 1593 1594 1594 1595 1595 1596 1595 1594 1594
1517 1510 1517 1515 1516 1519 1525 1528 1533 1536 1538 1542 1544 1546 1547 1549 1551 1553 1555 1556 1559 1561 1563 1564 1566 1568 1571 1574 1579 1580 1582 1586 1586 1588 1589 1592 1595 1597 1597 1595 1595 1596 1596 1596 1597 1597 1596 1595 1597
1517 1513 1515 1518 1519 1521 1525 1529 1532 1533 1535 1540 1544 1547 1549 1551 1552 1554 1556 1558 1560 1562 1563 1564 1566 1569 1569 1573 1578 1581 1582 1584 1586 1588 1590 1594 1596 1596 1598 1599 1599 1600 1599 1600 1599 1599 1599 1597 1596
1516 1516 1518 1520 1523 1524 1527 1531 1532 1535 1535 1541 1545 1549 1551 1552 1553 1554 1556 1558 1560 1562 1564 1565 1566 1569 1572 1575 1580 1582 1581 1584 1586 1588 1592 1594 1597 1598 1599 1600 1600 1599 1601 1600 1600 1599 1597 1596 1595
1517 1516 1520 1523 1524 1526 1530 1531 1533 1537 1540 1543 1547 1549 1551 1553 1554 1556 1557 1558 1559 1561 1564 1564 1566 1568 1572 1576 1575 1582 1582 1582 1586 1589 1593 1596 1597 1598 1599 1600 1601 1600 1601 1600 1600 1599 1597 1596 1595
1517 1518 1520 1523 1525 1528 1529 1532 1532 1538 1541 1544 1547 1549 1551 1553 1555 1556 1557 1558 1557 1559 1564 1563 1565 1568 1571 1575 1574 1580 1582 1583 1585 1589 1592 1593 1597 1597 1600 1600 1601 1601 1601 1601 1600 1598 1597 1596 1594
1517 1519 1521 1524 1526 1528 1530 1533 1529 1535 1539 1543 1546 1548 1551 1553 1555 1556 1557 1558 1557 1559 1561 1562 1564 1567 1570 1573 1576 1578 1580 1584 1587 1589 1591 1593 1595 1596 1597 1600 1600 1601 1600 1599 1600 1598 1597 1595 1592
1518 1517 1525 1525 1527 1530 1530 1530 1529 1534 1537 1539 1542 1546 1549 1552 1554 1556 1557 1558 1557 1558 1560 1561 1563 1566 1570 1573 1576 1578 1581 1583 1587 1590 1591 1593 1594 1596 1598 1600 1600 1599 1600 1600 1599 1597 1595 1593 1590
1519 1524 1522 1526 1525 1529 1529 1524 1525 1531 1534 1536 1539 1543 1547 1551 1553 1555 1557 1558 1558 1557 1558 1560 1563 1565 1568 1572 1575 1578 1581 1581 1584 1589 1591 1592 1595 1597 1597 1599 1599 1598 1599 1599 1598 1596 1594 1591 1589
1528 1528 1530 1526 1521 1524 1524 1523 1523 1528 1530 1533 1536 1540 1544 1547 1551 1553 1556 1557 1558 1557 1557 1560 1563 1565 1567 1571 1573 1577 1580 1582 1585 1589 1592 1592 1595 1596 1597 1599 1597 1597 1598 1597 1596 1592 1591 1590 1588
1517 1524 1516 1516 1521 1524 1527 1522 1521 1524 1526 1528 1532 1535 1540 1544 1548 1551 1554 1556 1557 1557 1557 1559 1562 1564 1567 1570 1572 1575 1580 1582 1585 1588 1590 1592 1594 1595 1597 1598 1596 1596 1595 1594 1592 1591 1590 1587 1588
1508 1517 1520 1525 1527 1526 1528 1528 1520 1521 1520 1522 1526 1532 1537 1541 1545 1548 1552 1555 1557 1558 1557 1559 1562 1564 1567 1570 1573 1577 1579 1583 1586 1589 1589 1591 1593 1594 1595 1595 1595 1594 1593 1592 1590 1588 1587 1587 1586
1504 1511 1512 1518 1523 1520 1520 1525 1515 1510 1515 1520 1520 1527 1533 1533 1540 1544 1548 1552 1555 1557 1558 1560 1562 1565 1567 1569 1572 1574 1579 1583 1585 1587 1587 1588 1590 1592 1593 1593 1593 1592 1590 1590 1587 1586 1585 1584 1583
1509 1508 1511 1518 1523 1531 1514 1526 1497 1495 1502 1511 1514 1520 1527 1532 1536 1540 1545 1549 1553 1557 1558 1559 1562 1564 1566 1568 1571 1573 1577 1580 1584 1586 1585 1586 1588 1590 1591 1591 1590 1589 1587 1586 1586 1584 1584 1583 1583
1505 1508 1510 1512 1516 1515 1509 1518 1488 1486 1494 1498 1507 1512 1519 1526 1532 1536 1541 1546 1551 1554 1557 1558 1560 1563 1566 1567 1571 1572 1575 1577 1578 1581 1583 1584 1586 1588 1589 1588 1587 1586 1585 1584 1582 1582 1580 1581 1581
1508 1510 1511 1511 1512 1523 1504 1508 1487 1483 1487 1488 1495 1506 1513 1519 1527 1533 1539 1544 1548 1552 1555 1558 1559 1563 1565 1567 1569 1571 1573 1574 1577 1580 1583 1583 1585 1586 1586 1585 1584 1584 1583 1583 1582 1581 1579 1579 1577
1506 1504 1516 1521 1525 1518 1500 1507 1488 1478 1482 1481 1490 1500 1507 1515 1523 1529 1535 1540 1544 1549 1553 1557 1558 1561 1564 1566 1569 1571 1572 1573 1576 1579 1580 1582 1583 1582 1582 1582 1583 1582 1581 1581 1580 1579 1578 1576 1576
1503 1498 1513 1533 1524 1505 1493 1498 1478 1477 1481 1484 1487 1496 1503 1511 1520 1525 1531 1537 1541 1546 1551 1555 1558 1560 1562 1564 1567 1569 1571 1573 1576 1578 1578 1579 1579 1580 1580 1581 1580 1580 1579 1579 1578 1577 1577 1576 1576
1500 1508 1496 1501 1490 1501 1484 1477 1467 1472 1479 1483 1487 1491 1500 1507 1515 1521 1528 1534 1539 1544 1548 1552 1556 1558 1561 1564 1565 1568 1570 1572 1574 1576 1577 1578 1578 1578 1579 1579 1579 1579 1578 1577 1577 1577 1577 1576 1576
1495 1491 1502 1496 1517 1522 1485 1486 1481 1475 1475 1479 1483 1489 1496 1504 1512 1518 1525 1531 1536 1542 1546 1550 1554 1556 1560 1563 1564 1567 1568 1570 1573 1575 1576 1576 1577 1578 1578 1578 1578 1578 1577 1577 1578 1578 1576 1575 1576
1497 1498 1497 1491 1489 1506 1496 1488 1468 1473 1473 1476 1481 1487 1494 1501 1508 1515 1522 1528 1534 1539 1543 1547 1551 1553 1558 1561 1564 1566 1568 1570 1571 1574 1575 1576 1576 1577 1577 1577 1577 1577 1577 1577 1577 1576 1576 1575 1574
1476 1480 1481 1493 1501 1488 1496 1486 1463 1468 1470 1473 1478 1486 1493 1500 1505 1512 1519 1525 1532 1537 1541 1545 1548 1550 1555 1558 1561 1564 1567 1569 1571 1573 1575 1575 1575 1576 1576 1576 1576 1577 1577 1577 1576 1576 1576 1576 1575